Sheldon, IA

2:17 PM CST on February 08, 2016 (GMT -0600)
Sheldon Municipal

Weather History for KSHL - June, 2013

Change the Weather History Date:

Sunday, June 9, 2013

  Actual Average Record
Temperature  
Mean Temperature 64 °F -  
Max Temperature 68 °F 78 °F 96 °F (1973)
Min Temperature 59 °F 55 °F 44 °F (1955)
Degree Days  
Heating Degree Days 2    
Growing Degree Days 14 (Base 50)    
Moisture  
Dew Point 61 °F    
Average Humidity 98    
Maximum Humidity 100    
Minimum Humidity 83    
Precipitation  
Precipitation 0.06 in - - ()
Sea Level Pressure  
Sea Level Pressure 29.68 in    
Wind  
Wind Speed 15 mph (NE)    
Max Wind Speed 25 mph    
Max Gust Speed 32 mph    
Visibility 7 miles    
Events Rain    
Averages and records for this station are not official NWS values.
T = Trace of Precipitation, MM = Missing Value Source: NWS Daily Summary

Daily Weather History Graph

Daily Weather History Graph

Search for Another Location

Airport or City:

Trip Planner

Search our weather history database for the weather conditions in past years. The results will help you decide how hot, cold, wet, or windy it might be!

Date:

Astronomy

Jun. 09, 2013 Rise Set
Actual Time 5:43 AM CDT 9:02 PM CDT
Civil Twilight 5:08 AM CDT 9:37 PM CDT
Nautical Twilight 4:22 AM CDT 10:23 PM CDT
Astronomical Twilight 3:26 AM CDT 11:19 PM CDT
Moon 6:42 AM CDT (6/9) 9:47 PM CDT (6/9)
Length of Visible Light 16h 29m
Length of Day
15h 18m
New Moon, 1% of the Moon is Illuminated
Jun 9
New Moon
Jun 16
First Quarter
Jun 23
Full
Jun 29
Last Quarter
Jul 8
New

Hourly Weather History & Observations

Time (CDT) Temp. Dew Point Humidity Pressure Visibility Wind Dir Wind Speed Gust Speed Precip Events Conditions
12:15 AM 60.8 °F 60.8 °F 100% 29.67 in 10.0 mi ESE 21.9 mph 29.9 mph N/A   Unknown
12:35 AM 60.8 °F 60.8 °F 100% 29.66 in 10.0 mi ESE 25.3 mph 32.2 mph N/A   Unknown
12:55 AM 60.8 °F 60.8 °F 100% 29.66 in 9.0 mi ESE 20.7 mph 28.8 mph 0.01 in   Unknown
1:15 AM 59.0 °F 59.0 °F 100% 29.66 in 5.0 mi ESE 20.7 mph 29.9 mph N/A Rain Light Rain
1:35 AM 60.8 °F 60.8 °F 100% 29.65 in 10.0 mi ESE 20.7 mph 29.9 mph N/A   Unknown
1:55 AM 60.8 °F 60.8 °F 100% 29.64 in 10.0 mi ESE 19.6 mph 26.5 mph N/A   Unknown
2:15 AM 60.8 °F 60.8 °F 100% 29.63 in 10.0 mi ESE 18.4 mph 25.3 mph N/A   Unknown
2:35 AM 60.8 °F 60.8 °F 100% 29.63 in 10.0 mi ESE 17.3 mph - N/A   Unknown
2:55 AM 60.8 °F 60.8 °F 100% 29.61 in 10.0 mi ESE 15.0 mph - N/A   Overcast
3:15 AM 60.8 °F 60.8 °F 100% 29.61 in 7.0 mi ESE 17.3 mph - N/A   Overcast
3:35 AM 60.8 °F 60.8 °F 100% 29.60 in 3.0 mi ESE 15.0 mph - N/A   Overcast
3:55 AM 60.8 °F 60.8 °F 100% 29.59 in 3.0 mi ESE 13.8 mph - N/A   Overcast
4:15 AM 60.8 °F 60.8 °F 100% 29.58 in 1.5 mi ESE 11.5 mph - N/A   Overcast
4:35 AM 60.8 °F 60.8 °F 100% 29.58 in 1.5 mi SSE 11.5 mph - N/A Rain Light Rain
4:55 AM 59.0 °F 59.0 °F 100% 29.59 in 3.0 mi SSW 10.4 mph 17.3 mph N/A   Overcast
5:15 AM 59.0 °F 59.0 °F 100% 29.59 in 3.0 mi SSW 10.4 mph - N/A   Overcast
5:35 AM 59.0 °F 59.0 °F 100% 29.60 in 4.0 mi SSW 9.2 mph - N/A   Overcast
5:55 AM 59.0 °F 59.0 °F 100% 29.60 in 3.0 mi South 9.2 mph - N/A   Mist
6:15 AM 59.0 °F 59.0 °F 100% 29.60 in 2.0 mi South 11.5 mph - N/A   Overcast
6:35 AM 59.0 °F 59.0 °F 100% 29.61 in 2.5 mi South 11.5 mph - N/A   Overcast
6:55 AM 59.0 °F 59.0 °F 100% 29.61 in 2.0 mi South 10.4 mph - N/A   Overcast
7:15 AM 59.0 °F 59.0 °F 100% 29.61 in 3.0 mi South 11.5 mph - N/A   Overcast
7:35 AM 59.0 °F 59.0 °F 100% 29.61 in 2.5 mi South 12.7 mph - N/A   Overcast
7:55 AM 59.0 °F 59.0 °F 100% 29.61 in 1.8 mi South 11.5 mph - N/A   Overcast
8:15 AM 59.0 °F 59.0 °F 100% 29.61 in 2.5 mi South 10.4 mph - N/A   Overcast
8:35 AM 59.0 °F 59.0 °F 100% 29.61 in 6.0 mi South 11.5 mph - N/A   Overcast
8:55 AM 59.0 °F 59.0 °F 100% 29.61 in 9.0 mi South 11.5 mph - N/A   Overcast
9:15 AM 60.8 °F 60.8 °F 100% 29.62 in 10.0 mi SSE 10.4 mph - N/A   Overcast
9:35 AM 60.8 °F 60.8 °F 100% 29.62 in 10.0 mi SSE 11.5 mph - N/A   Overcast
9:55 AM 60.8 °F 60.8 °F 100% 29.62 in 6.0 mi SSE 11.5 mph - N/A   Overcast
10:15 AM 60.8 °F 60.8 °F 100% 29.62 in 5.0 mi SSE 10.4 mph - N/A   Overcast
10:35 AM 60.8 °F 60.8 °F 100% 29.63 in 10.0 mi SSE 10.4 mph - N/A   Overcast
10:55 AM 62.6 °F 62.6 °F 100% 29.63 in 10.0 mi SE 9.2 mph - N/A   Overcast
11:15 AM 60.8 °F 60.8 °F 100% 29.63 in 10.0 mi SSE 8.1 mph - N/A   Overcast
11:35 AM 62.6 °F 60.8 °F 94% 29.64 in 10.0 mi ESE 4.6 mph - N/A   Overcast
11:55 AM 62.6 °F 60.8 °F 94% 29.65 in 10.0 mi ESE 4.6 mph - N/A   Overcast
12:15 PM 62.6 °F 60.8 °F 94% 29.66 in 10.0 mi ENE 6.9 mph - N/A   Overcast
12:35 PM 62.6 °F 60.8 °F 94% 29.66 in 10.0 mi NNE 6.9 mph - N/A   Overcast
12:55 PM 62.6 °F 60.8 °F 94% 29.67 in 10.0 mi NNE 6.9 mph - N/A   Overcast
1:15 PM 62.6 °F 60.8 °F 94% 29.67 in 10.0 mi NNE 4.6 mph - N/A   Overcast
1:35 PM 64.4 °F 60.8 °F 88% 29.67 in 10.0 mi North 8.1 mph - N/A   Overcast
1:55 PM 64.4 °F 62.6 °F 94% 29.68 in 10.0 mi North 9.2 mph - N/A   Overcast
2:15 PM 66.2 °F 62.6 °F 88% 29.68 in 10.0 mi North 8.1 mph - N/A   Overcast
2:35 PM 66.2 °F 62.6 °F 88% 29.69 in 10.0 mi North 9.2 mph - N/A   Overcast
2:55 PM 66.2 °F 60.8 °F 83% 29.69 in 10.0 mi North 6.9 mph - N/A   Overcast
3:15 PM 66.2 °F 62.6 °F 88% 29.69 in 10.0 mi North 11.5 mph - N/A   Overcast
3:35 PM 68.0 °F 62.6 °F 83% 29.70 in 10.0 mi NNW 10.4 mph - N/A   Overcast
3:55 PM 68.0 °F 62.6 °F 83% 29.70 in 10.0 mi NNW 12.7 mph - N/A   Overcast
4:15 PM 66.2 °F 62.6 °F 88% 29.70 in 9.0 mi NW 13.8 mph - N/A   Mostly Cloudy
4:35 PM 66.2 °F 64.4 °F 94% 29.70 in 10.0 mi NW 12.7 mph - N/A   Overcast
4:55 PM 66.2 °F 64.4 °F 94% 29.71 in - NW 19.6 mph - N/A   Unknown
5:15 PM 66.2 °F 66.2 °F 100% 29.71 in 9.0 mi NW 16.1 mph - N/A Rain Light Rain
5:35 PM 64.4 °F 64.4 °F 100% 29.72 in 1.2 mi NW 13.8 mph 24.2 mph N/A Rain Heavy Rain
5:55 PM 64.4 °F 64.4 °F 100% 29.72 in 10.0 mi NW 12.7 mph - 0.04 in   Overcast
6:15 PM 66.2 °F 66.2 °F 100% 29.72 in 10.0 mi NW 16.1 mph - N/A   Mostly Cloudy
6:35 PM 66.2 °F 64.4 °F 94% 29.73 in 10.0 mi NNW 21.9 mph - N/A   Mostly Cloudy
6:55 PM 64.4 °F 64.4 °F 100% 29.74 in 3.0 mi NNW 21.9 mph - 0.01 in Rain Light Rain
7:15 PM 64.4 °F 64.4 °F 100% 29.75 in 10.0 mi NNW 16.1 mph 21.9 mph N/A   Overcast
7:35 PM 64.4 °F 64.4 °F 100% 29.76 in 10.0 mi NNW 15.0 mph - N/A   Mostly Cloudy
7:55 PM 64.4 °F 64.4 °F 100% 29.76 in 10.0 mi NW 13.8 mph - N/A   Overcast
8:15 PM 64.4 °F 64.4 °F 100% 29.77 in 10.0 mi NW 16.1 mph 21.9 mph N/A   Overcast
8:35 PM 62.6 °F 62.6 °F 100% 29.78 in 10.0 mi NNW 17.3 mph - N/A   Overcast
8:55 PM 62.6 °F 62.6 °F 100% 29.78 in 9.0 mi NNW 18.4 mph 24.2 mph N/A   Mostly Cloudy
9:15 PM 60.8 °F 60.8 °F 100% 29.79 in 9.0 mi NNW 17.3 mph - N/A   Scattered Clouds
9:35 PM 60.8 °F 60.8 °F 100% 29.80 in 9.0 mi NNW 17.3 mph - N/A   Mostly Cloudy
9:55 PM 60.8 °F 60.8 °F 100% 29.81 in 8.0 mi NNW 15.0 mph - N/A   Overcast
10:15 PM 60.8 °F 60.8 °F 100% 29.82 in 6.0 mi NNW 15.0 mph - N/A   Overcast
10:35 PM 60.8 °F 60.8 °F 100% 29.83 in 6.0 mi NNW 16.1 mph - N/A   Overcast
10:55 PM 60.8 °F 60.8 °F 100% 29.84 in 5.0 mi NNW 12.7 mph 19.6 mph N/A   Overcast
11:15 PM 60.8 °F 60.8 °F 100% 29.83 in 5.0 mi North 13.8 mph - N/A   Overcast
11:35 PM 60.8 °F 60.8 °F 100% 29.83 in 5.0 mi North 13.8 mph - N/A   Mist
11:55 PM 60.8 °F 60.8 °F 100% 29.84 in 5.0 mi NNW 12.7 mph - N/A   Mist